Regional Weather Roundup
Issued by NWS

Home | Current Version | Previous Version | Graphics & Text | Print | Product List | Glossary On
Versions: 1 2 3 4 5 6 7 8 9 10 11 12 13 14 15 16 17 18 19 20 21 22 23 24 25 26 27 28 29 30 31 32 33 34 35 36 37 38 39 40 41 42 43 44 45 46 47 48 49 50
000
ASUS43 KLMK 210510
RWRKY
KENTUCKY REGIONAL WEATHER ROUNDUP
NATIONAL WEATHER SERVICE LOUISVILLE KY
100 AM EDT MON APR 21 2014

NOTE "FAIR" INDICATES FEW OR NO CLOUDS BELOW 12,000 FEET
WITH NO SIGNIFICANT WEATHER AND/OR OBSTRUCTIONS TO VISIBILITY.

KYZ001>023-026-027-061>063-070>075-210600-
WESTERN AND SOUTH CENTRAL KENTUCKY

CITY           SKY/WX    TMP DP  RH WIND       PRES   REMARKS
PADUCAH        PTCLDY    59  50  72 CALM      30.07F
HENDERSON      CLEAR     54  46  76 CALM      30.09S
OWENSBORO      CLEAR     56  49  77 CALM      30.10S
HOPKINSVILLE   CLEAR     59  45  58 W2        30.10F
BOWLING GREEN  PTCLDY    53  46  77 CALM      30.11S
GLASGOW        CLEAR     53  48  82 CALM      30.11F
$$

KYZ024-025-028>034-038-045-046-053-210600-
NORTH CENTRAL KENTUCKY

CITY           SKY/WX    TMP DP  RH WIND       PRES   REMARKS
LOUISVILLE/SDF PTCLDY    61  45  55 CALM      30.09F
LOUISVILLE/LOU CLEAR     60  44  55 CALM      30.10F
FORT KNOX      PTCLDY    57  42  58 N1        30.09F
$$

KYZ035>037-039>044-047>052-055>060-089>105-210600-
NORTHEAST KENTUCKY

CITY           SKY/WX    TMP DP  RH WIND       PRES   REMARKS
LEXINGTON      PTCLDY    56  43  61 SE3       30.11F
COVINGTON      PTCLDY    55  43  63 S3        30.10F
FRANKFORT      PTCLDY    52  43  71 CALM      30.10F
$$

KYZ054-064>069-076>088-106>120-210600-
SOUTHEAST KENTUCKY

CITY           SKY/WX    TMP DP  RH WIND       PRES   REMARKS
JACKSON        PTCLDY    66  29  24 N3        30.13F
LONDON         PTCLDY    55  44  66 CALM      30.13F
SOMERSET       PTCLDY    52  43  71 CALM      30.14S
MIDDLESBORO    CLEAR     49  42  76 CALM      30.15F
MONTICELLO     PTCLDY    48  43  83 CALM      30.15S
$$




USA.gov is the U.S. government's official web portal to all federal, state and local government web resources and services.